Weather History for KNJK - May, 2012

Change the Weather History Date:

Friday, May 11, 2012

  Actual Average (KCZZ) Record (KCZZ)
Temperature  
Mean Temperature 82 °F 60 °F  
Max Temperature 100 °F 79 °F 96 °F (1996)
Min Temperature 63 °F 42 °F 30 °F (2002)
Degree Days  
Heating Degree Days 0 6  
Month to date heating degree days 70  
Since 1 July heating degree days 2838  
Cooling Degree Days 16 1  
Month to date cooling degree days 6  
Year to date cooling degree days 9  
Growing Degree Days 32 (Base 50)    
Moisture  
Dew Point 29 °F    
Average Humidity 17    
Maximum Humidity 42    
Minimum Humidity 4    
Precipitation  
Precipitation 0.00 in 0.00 in 1.05 in (1957)
Month to date precipitation 0.11  
Year to date precipitation 9.97  
Snow  
Snow 0.00 in - - ()
Month to date snowfall  
Since 1 July snowfall  
Snow Depth -    
Sea Level Pressure  
Sea Level Pressure 29.79 in    
Wind  
Wind Speed 10 mph (SSW)    
Max Wind Speed 21 mph    
Max Gust Speed 29 mph    
Visibility 10 miles    
Events      
T = Trace of Precipitation, MM = Missing Value Source: NWS Daily Summary

Daily Weather History Graph

Daily Weather History Graph

Search for Another Location

Airport or City:

Trip Planner

Search our weather history database for the weather conditions in past years. The results will help you decide how hot, cold, wet, or windy it might be!

Date:

Astronomy

May. 11, 2012 Rise Set
Actual Time 5:46 AM PDT 7:32 PM PDT
Civil Twilight 5:19 AM PDT 7:59 PM PDT
Nautical Twilight 4:46 AM PDT 8:31 PM PDT
Astronomical Twilight 4:12 AM PDT 9:06 PM PDT
Moon 12:16 AM PDT (5/11) 11:20 AM PDT (5/11)
Length of Visible Light 14h 40m
Length of Day
13h 46m
Waning Gibbous, 62% of the Moon is Illuminated
May 11
Waning Gibbous
May 12
Last Quarter
May 20
New
May 28
First Quarter
Jun 4
Full

Hourly Weather History & Observations

Time (PDT) Temp. Dew Point Humidity Pressure Visibility Wind Dir Wind Speed Gust Speed Precip Events Conditions
12:56 AM 75.0 °F 21.0 °F 13% 29.75 in 10.0 mi WSW 12.7 mph - N/A   Clear
1:56 AM 71.1 °F 18.0 °F 13% 29.74 in 10.0 mi WSW 10.4 mph - N/A   Clear
2:56 AM 69.1 °F 16.0 °F 13% 29.75 in 10.0 mi SSW 8.1 mph - N/A   Clear
3:56 AM 64.9 °F 19.0 °F 17% 29.75 in 10.0 mi Calm Calm - N/A   Clear
4:56 AM 63.0 °F 24.1 °F 23% 29.76 in 10.0 mi SE 3.5 mph - N/A   Clear
5:56 AM 64.0 °F 37.9 °F 38% 29.78 in 10.0 mi SSE 11.5 mph - N/A   Clear
6:56 AM 66.0 °F 42.1 °F 42% 29.81 in 10.0 mi SSE 5.8 mph - N/A   Clear
7:56 AM 73.0 °F 45.0 °F 37% 29.83 in 10.0 mi SSE 6.9 mph - N/A   Clear
8:56 AM 79.0 °F 46.0 °F 31% 29.83 in 10.0 mi South 6.9 mph - N/A   Clear
9:56 AM 84.0 °F 37.9 °F 19% 29.84 in 10.0 mi SSE 5.8 mph - N/A   Clear
10:56 AM 88.0 °F 37.0 °F 16% 29.84 in 10.0 mi SE 5.8 mph - N/A   Clear
11:56 AM 90.0 °F 35.1 °F 14% 29.83 in 10.0 mi Variable 4.6 mph - N/A   Clear
12:56 PM 93.0 °F 34.0 °F 12% 29.81 in 10.0 mi East 6.9 mph - N/A   Clear
1:56 PM 96.1 °F 30.0 °F 10% 29.79 in 10.0 mi East 9.2 mph - N/A   Clear
2:56 PM 97.0 °F 28.0 °F 9% 29.77 in 10.0 mi SE 6.9 mph - N/A   Clear
3:56 PM 100.0 °F 12.0 °F 4% 29.76 in 10.0 mi WNW 8.1 mph - N/A   Clear
4:56 PM 100.0 °F 15.1 °F 5% 29.75 in 10.0 mi West 17.3 mph - N/A   Clear
5:56 PM 96.1 °F 23.0 °F 7% 29.75 in 10.0 mi WSW 20.7 mph 28.8 mph N/A   Clear
6:56 PM 91.0 °F 27.0 °F 10% 29.77 in 10.0 mi WSW 20.7 mph - N/A   Clear
7:56 PM 84.9 °F 28.0 °F 13% 29.79 in 10.0 mi WSW 13.8 mph - N/A   Clear
8:56 PM 82.0 °F 28.9 °F 14% 29.81 in 10.0 mi WSW 16.1 mph - N/A   Clear
9:56 PM 80.1 °F 30.0 °F 16% 29.83 in 10.0 mi West 17.3 mph - N/A   Clear
10:12 PM - - N/A% - - North - - N/A   Unknown
10:56 PM 79.0 °F 28.9 °F 16% 29.85 in 10.0 mi WSW 13.8 mph - N/A   Clear
11:56 PM 75.9 °F 27.0 °F 16% 29.86 in 10.0 mi West 9.2 mph - N/A   Clear